{"data":{"norad_id":56232,"epoch":"2026-05-25T03:26:30.643872Z","epoch_age_seconds":65727,"freshness":"FRESH","line1":"1 56232U 23055A   26145.14341023  .00023393  00000+0  36597-3 0  9991","line2":"2 56232  49.9919 104.9087 0005644  91.5589 268.6025 15.53582391176427","mean_motion":15.53582391,"eccentricity":0.0005644,"inclination_deg":49.9919,"raan_deg":104.9087,"arg_perigee_deg":91.5589,"mean_anomaly_deg":268.6025,"bstar":0.00036597,"rev_number":17642,"period_min":92.689001133252,"perigee_km":402.44745389406,"apogee_km":410.10569993969,"semimajor_km":6784.4135769169,"source":"CELESTRAK","updated_at":"2026-05-25T13:38:12.254186Z"}}